Flag for U.S.A. Weather past 2 weeks in Mansfield, Texas, U.S.A.

Now
79 °F

Sunny.


Feels Like: 81 °F
Forecast: 76 / 97 °F
Wind: 8 mph from South

Location: Burleson-Rendon

Current Time: Jul 26, 2014 at 8:27:40 AM

Latest Report: Jul 26, 2014 at 7:51 AM


Visibility: 10 mi

Pressure: 30.02 "Hg

Humidity: 74%

Dew point: 70 °F

Location of MansfieldLocation

Historic Weather in Mansfield — Graph

°F

Mansfield temperature yesterday

Maximum temperature yesterday: 99 °F (at 2:53 PM)
Minimum temperature yesterday: 70 °F (at 5:55 AM)
Average temperature yesterday: 83 °F

Past Weeks' High & Low Weather Summary

 TemperatureHumidityPressure
High102 °F (Jul 14, 2:53 PM)95% (Jul 18, 6:35 AM)30.20 "Hg (Jul 18, 6:35 AM)
Low64 °F (Jul 20, 1:55 AM)24% (Jul 15, 4:52 PM)29.89 "Hg (Jul 16, 6:50 PM)
Average79 °F67%30.02 "Hg
* Reported Jul 11 6:15 AM — Jul 26 6:47 AM, Mansfield, Weather by CustomWeather, © 2014

Note: Actual official high and low records may vary slightly from our data, if they occured in-between our weather recording intervals... More about our weather records

Advertising

Mansfield weather history for previous 24 hours

 ConditionsComfort  
Time TempWeatherWind HumidityBarometerVisibility
6:47 AM
Jul 26
99 °FClear.6 mph31%30.00 "Hg7 mi
6:35 AM77 °FClear.7 mph79%30.00 "Hg5 mi
6:15 AM77 °FClear.7 mph78%30.00 "Hg7 mi
5:55 AM78 °FClear.7 mph77%29.99 "Hg7 mi
5:35 AM78 °FClear.8 mph75%29.98 "Hg7 mi
5:15 AM78 °FClear.8 mph75%29.97 "Hg7 mi
4:55 AM79 °FClear.8 mph74%29.97 "Hg7 mi
4:35 AM79 °FClear.8 mph74%29.97 "Hg7 mi
4:15 AM79 °FClear.9 mph74%29.96 "Hg7 mi
3:55 AM79 °FClear.9 mph74%29.97 "Hg10 mi
3:15 AM80 °FClear.9 mph70%29.97 "Hg7 mi
2:55 AM80 °FClear.8 mph69%29.97 "Hg10 mi
2:15 AM81 °FClear.9 mph67%29.97 "Hg7 mi
1:55 AM82 °FClear.8 mph66%29.98 "Hg7 mi
1:35 AM82 °FClear.10 mph65%29.98 "Hg7 mi
1:15 AM82 °FClear.8 mph64%29.98 "Hg7 mi
12:55 AM83 °FClear.9 mph63%29.98 "Hg7 mi
12:35 AM84 °FClear.7 mph62%29.99 "Hg10 mi
12:15 AM84 °FClear.8 mph61%29.98 "Hg10 mi
11:55 PM
Jul 25
84 °FClear.8 mph60%29.98 "Hg7 mi
11:35 PM85 °FClear.8 mph58%29.97 "Hg7 mi
11:15 PM85 °FClear.7 mph57%29.97 "Hg7 mi
10:55 PM85 °FClear.6 mph54%29.97 "Hg10 mi
10:35 PM86 °FClear.6 mph51%29.97 "Hg10 mi
9:55 PM87 °FClear.7 mph48%29.96 "Hg10 mi
9:35 PM88 °FClear.7 mph46%29.95 "Hg10 mi
9:15 PM88 °FSunny.8 mph47%29.95 "Hg10 mi
8:55 PM89 °FSunny.7 mph46%29.94 "Hg7 mi
8:15 PM92 °FSunny.7 mph41%29.93 "Hg5 mi
7:55 PM94 °FSunny.8 mph37%29.93 "Hg7 mi
7:35 PM96 °FSunny.7 mph34%29.92 "Hg5 mi
7:15 PM97 °FSunny.7 mph33%29.92 "Hg7 mi
6:50 PM99 °FSunny.7 mph31%29.92 "Hg10 mi
5:50 PM99 °FSunny.7 mph31%29.92 "Hg10 mi
4:50 PM99 °FSunny.12 mph31%29.94 "Hg10 mi
3:51 PM99 °FSunny.7 mph31%29.96 "Hg10 mi
2:53 PM99 °FPassing clouds.9 mph33%29.97 "Hg10 mi
1:52 PM97 °FPassing clouds.7 mph37%29.99 "Hg10 mi
12:47 PM95 °FPassing clouds.9 mph36%30.02 "Hg10 mi
11:49 AM93 °FPassing clouds.7 mph41%30.03 "Hg10 mi
10:51 AM91 °FSunny.12 mph46%30.04 "Hg10 mi
9:51 AM88 °FSunny.13 mph55%30.04 "Hg10 mi
8:48 AM82 °FSunny.9 mph62%30.04 "Hg10 mi
Weather by CustomWeather, © 2014

See weather overviewHow to use our weather pages